(2020 VU6) |
Classification: Apollo [NEO] SPK-ID: 54091630 |
[ hide orbit diagram ]
For accurate long-term ephemerides, please instead use our Horizons system.This orbit viewer was implemented using two-body methods, and hence should not be used for determining accurate long-term trajectories (over several years or decades) or planetary encounter circumstances.
Orbital Elements at Epoch 2459200.5 (2020-Dec-17.0) TDB
Reference: JPL 3 (heliocentric ecliptic J2000)
Element | Value | Uncertainty (1-sigma) | Units |
e | .7195540464944669 | 2.8593e-06 | |
a | 1.676649299767158 | 8.3254e-07 | au |
q | .470209511567585 | 4.5634e-06 | au |
i | 42.51592179978095 | 7.0531e-05 | deg |
node | 255.0940356182429 | 3.4602e-05 | deg |
peri | 20.35077679919245 | 0.00012242 | deg |
M | 115.6606673342884 | 0.00071118 | deg |
tp | 2458945.731947242562 (2020-Apr-06.23194724) | 0.0014206 | TDB |
period | 792.9791614256733 2.17 | 0.00059063 1.617e-06 | d yr |
n | .4539841871163006 | 3.3814e-07 | deg/d |
Q | 2.88308908796673 | 1.4316e-06 | au |
|
| | Orbit Determination Parameters
Additional Information
|
[ show covariance matrix ]
Physical Parameter Table
Parameter |
Symbol |
Value |
Units |
Sigma |
Reference |
Notes |
absolute magnitude |
H |
18.0 |
|
.67662 |
E2021-CC3 |
autocmod 2.8 |
|
[ show close-approach data ]
|